Change the Weather History Date:

Thursday, May 30, 2013

  Actual Average Record
Temperature  
Mean Temperature 80 °F 68 °F  
Max Temperature 89 °F 78 °F 95 °F (2011)
Min Temperature 71 °F 58 °F 40 °F (1949)
Degree Days  
Heating Degree Days 0 2  
Month to date heating degree days 134 133  
Since 1 July heating degree days 4149 4393  
Cooling Degree Days 15 4  
Month to date cooling degree days 111 70  
Year to date cooling degree days 142 90  
Growing Degree Days 30 (Base 50)    
Moisture  
Dew Point 66 °F    
Average Humidity 63    
Maximum Humidity 79    
Minimum Humidity 46    
Precipitation  
Precipitation 0.00 in 0.13 in 2.04 in (1984)
Month to date precipitation 2.21 3.42  
Year to date precipitation 14.85 16.81  
Sea Level Pressure  
Sea Level Pressure 30.16 in    
Wind  
Wind Speed 8 mph (SW)    
Max Wind Speed 15 mph    
Max Gust Speed 18 mph    
Visibility 10 miles    
Events      
T = Trace of Precipitation, MM = Missing Value Source: NWS Daily Summary

Daily Weather History Graph

Daily Weather History Graph

Search for Another Location

Airport or City:

Trip Planner

Search our weather history database for the weather conditions in past years. The results will help you decide how hot, cold, wet, or windy it might be!

Date:

Astronomy

May. 30, 2013 Rise Set
Actual Time 5:39 AM EDT 8:19 PM EDT
Civil Twilight 5:08 AM EDT 8:50 PM EDT
Nautical Twilight 4:29 AM EDT 9:29 PM EDT
Astronomical Twilight 3:45 AM EDT 10:13 PM EDT
Moon 12:20 AM EDT (5/30) 11:42 AM EDT (5/30)
Length of Visible Light 15h 42m
Length of Day
14h 39m
Waning Gibbous, 62% of the Moon is Illuminated
May 30
Waning Gibbous
May 31
Last Quarter
Jun 8
New
Jun 16
First Quarter
Jun 23
Full

Hourly Weather History & Observations

Time (EDT) Temp. Heat Index Dew Point Humidity Pressure Visibility Wind Dir Wind Speed Gust Speed Precip Events Conditions
12:54 AM 75.9 °F - 64.0 °F 67% 30.14 in 10.0 mi SW 9.2 mph - N/A   Clear
1:54 AM 75.0 °F - 64.0 °F 69% 30.16 in 10.0 mi SW 6.9 mph - N/A   Clear
2:54 AM 73.9 °F - 64.0 °F 71% 30.16 in 10.0 mi SW 9.2 mph - N/A   Clear
3:54 AM 73.0 °F - 63.0 °F 71% 30.17 in 10.0 mi SW 8.1 mph - N/A   Clear
4:54 AM 72.0 °F - 63.0 °F 73% 30.16 in 10.0 mi SW 8.1 mph - N/A   Clear
5:54 AM 71.1 °F - 64.0 °F 78% 30.18 in 8.0 mi SW 6.9 mph - N/A   Clear
6:54 AM 72.0 °F - 64.9 °F 78% 30.19 in 8.0 mi SW 9.2 mph - N/A   Clear
7:54 AM 73.9 °F - 64.9 °F 73% 30.19 in 10.0 mi SW 10.4 mph - N/A   Clear
8:54 AM 77.0 °F - 64.9 °F 66% 30.20 in 10.0 mi WSW 8.1 mph 17.3 mph N/A   Clear
9:54 AM 79.0 °F - 66.0 °F 64% 30.19 in 10.0 mi SW 9.2 mph - N/A   Clear
10:54 AM 82.0 °F 84.5 °F 66.9 °F 60% 30.20 in 10.0 mi SW 10.4 mph - N/A   Clear
11:54 AM 84.0 °F 86.5 °F 66.9 °F 56% 30.19 in 10.0 mi WSW 5.8 mph - N/A   Clear
12:54 PM 86.0 °F 88.8 °F 66.9 °F 53% 30.19 in 10.0 mi SW 8.1 mph - N/A   Clear
1:54 PM 88.0 °F 91.4 °F 68.0 °F 51% 30.17 in 10.0 mi SW 9.2 mph - N/A   Clear
2:54 PM 88.0 °F 90.3 °F 66.0 °F 48% 30.16 in 10.0 mi SW 10.4 mph - N/A   Clear
3:54 PM 88.0 °F 90.3 °F 66.0 °F 48% 30.14 in 10.0 mi SW 8.1 mph - N/A   Clear
4:54 PM 89.1 °F 91.3 °F 66.0 °F 46% 30.14 in 10.0 mi SSW 11.5 mph - N/A   Clear
5:54 PM 88.0 °F 89.6 °F 64.9 °F 46% 30.14 in 10.0 mi WSW 6.9 mph - N/A   Clear
6:54 PM 86.0 °F 88.2 °F 66.0 °F 51% 30.14 in 10.0 mi SSW 8.1 mph - N/A   Clear
7:54 PM 82.9 °F 85.0 °F 66.0 °F 56% 30.14 in 10.0 mi SW 5.8 mph - N/A   Clear
8:54 PM 78.1 °F - 66.9 °F 68% 30.15 in 10.0 mi SSW 4.6 mph - N/A   Clear
9:54 PM 75.9 °F - 66.9 °F 74% 30.15 in 10.0 mi SSW 5.8 mph - N/A   Clear
10:54 PM 73.9 °F - 66.9 °F 79% 30.15 in 10.0 mi SSW 5.8 mph - N/A   Clear
11:54 PM 73.0 °F - 66.9 °F 81% 30.15 in 10.0 mi SSW 5.8 mph - N/A   Clear